Flag for U.S.A. Weather past 2 weeks in Fort Bragg, California, U.S.A.

Now
75 °F

Sunny.


Feels Like: 78 °F
Forecast: 57 / 66 °F
Wind: 8 mph from North

Location: Ukiah Municipal

Current Time: Sep 21, 2014 at 7:53:35 PM

Latest Report: Sep 21, 2014 at 6:56 PM


Visibility: 10 mi

Pressure: 29.93 "Hg

Humidity: 50%

Dew point: 55 °F

Location of Fort BraggLocation

Historic Weather in Fort Bragg — Graph

°F

Fort Bragg temperature yesterday

Maximum temperature yesterday: 89 °F (at 3:56 PM)
Minimum temperature yesterday: 55 °F (at 6:03 AM)
Average temperature yesterday: 71 °F

Past Weeks' High & Low Weather Summary

 TemperatureHumidityPressure
High101 °F (Sep 11, 3:56 PM)97% (Sep 18, 3:56 AM)29.98 "Hg (Sep 18, 3:56 AM)
Low48 °F (Sep 7, 6:56 AM)6% (Sep 9, 2:56 PM)29.67 "Hg (Sep 17, 4:56 PM)
Average71 °F50%29.84 "Hg
* Reported Sep 6 6:56 PM — Sep 21 6:56 PM, Fort Bragg, Weather by CustomWeather, © 2014

Note: Actual official high and low records may vary slightly from our data, if they occured in-between our weather recording intervals... More about our weather records

Advertising

Fort Bragg weather history for previous 24 hours

 ConditionsComfort  
Time TempWeatherWind HumidityBarometerVisibility
6:56 PM
Sep 21
75 °FSunny.8 mph50%29.93 "Hg10 mi
5:56 PM81 °FSunny.9 mph39%29.91 "Hg10 mi
4:56 PM86 °FSunny.8 mph32%29.89 "Hg10 mi
3:56 PM86 °FSunny.5 mph31%29.90 "Hg10 mi
2:56 PM84 °FSunny.7 mph33%29.90 "Hg10 mi
1:56 PM81 °FSunny.6 mph41%29.92 "Hg10 mi
12:56 PM77 °FSunny.6 mph47%29.95 "Hg10 mi
11:56 AM70 °FSunny.6 mph61%29.96 "Hg10 mi
10:56 AM66 °FPassing clouds.8 mph70%29.97 "Hg10 mi
9:56 AM61 °FPartly sunny.6 mph83%29.98 "Hg10 mi
8:56 AM59 °FPartly sunny.No wind84%29.97 "Hg10 mi
7:56 AM58 °FLow clouds.No wind87%29.96 "Hg10 mi
6:56 AM58 °FLow clouds.No wind90%29.95 "Hg10 mi
5:56 AM58 °FLow clouds.No wind90%29.93 "Hg10 mi
4:56 AM58 °FPassing clouds.3 mph90%29.92 "Hg10 mi
3:56 AM59 °FClear.3 mph84%29.92 "Hg10 mi
2:56 AM59 °FClear.3 mph90%29.92 "Hg10 mi
1:56 AM60 °FClear.3 mph86%29.93 "Hg10 mi
12:56 AM61 °FClear.6 mph83%29.92 "Hg10 mi
11:56 PM
Sep 20
62 °FClear.7 mph80%29.92 "Hg10 mi
10:56 PM65 °FClear.6 mph73%29.91 "Hg10 mi
9:56 PM68 °FClear.7 mph65%29.88 "Hg10 mi
8:56 PM73 °FClear.7 mph55%29.87 "Hg10 mi
7:56 PM75 °FSunny.No wind50%29.84 "Hg10 mi
Weather by CustomWeather, © 2014

See weather overviewHow to use our weather pages